CW8254 Weather Reports


time (UTC)temp
C
wind
direction
speed
KPH
gust
KPH
rain 1hr
cm
rain 24hr
cm
rain mn
cm
humidity
%
barometer
mb
20260505180724 15 315 4.8 9.7 0.00 0.00 0.00 52 1014.1
20260505175724 15 0 3.2 9.7 0.00 0.00 0.00 52 1014.1
20260505174726 15 338 4.8 8.0 0.00 0.00 0.00 51 1014.1
20260505174224 15 0 4.8 9.7 0.00 0.00 0.00 51 1014.1
20260505173225 15 292 4.8 9.7 0.00 0.00 0.00 51 1014.1
20260505172725 15 0 4.8 8.0 0.00 0.00 0.00 51 1014.1
20260505171724 16 0 4.8 8.0 0.00 0.00 0.00 50 1014.1
20260505170725 16 0 3.2 11.3 0.00 0.00 0.00 49 1014.1
20260505170225 16 0 3.2 11.3 0.00 0.00 0.00 49 1014.1
20260505165725 16 315 6.4 9.7 0.00 0.00 0.00 49 1014.1
20260505165224 17 338 6.4 9.7 0.00 0.00 0.00 48 1014.1
20260505164725 17 338 6.4 11.3 0.00 0.00 0.00 48 1014.1
20260505164225 17 315 4.8 11.3 0.00 0.00 0.00 48 1014.1
20260505163724 17 338 3.2 11.3 0.00 0.00 0.00 48 1014.1
20260505163224 17 0 4.8 14.5 0.00 0.00 0.00 48 1014.1
20260505162724 17 0 8.0 14.5 0.00 0.00 0.00 48 1014.1
20260505162225 17 0 6.4 14.5 0.00 0.00 0.00 48 1014.1
20260505161725 17 0 4.8 11.3 0.00 0.00 0.00 48 1014.1
20260505161224 17 0 6.4 11.3 0.00 0.00 0.00 48 1014.1
20260505160726 17 135 8.0 9.7 0.00 0.00 0.00 48 1014.1
20260505153226 18 338 6.4 9.7 0.00 0.00 0.00 47 1014.1
20260505152224 18 135 4.8 11.3 0.00 0.00 0.00 47 1014.1
20260505151726 18 202 4.8 14.5 0.00 0.00 0.00 46 1014.1
20260505151224 18 135 6.4 14.5 0.00 0.00 0.00 46 1014.1
20260505150725 18 0 6.4 14.5 0.00 0.00 0.00 46 1014.1
20260505150224 18 315 4.8 14.5 0.00 0.00 0.00 47 1014.1
20260505140224 18 0 6.4 11.3 0.00 0.00 0.00 49 1014.1
20260505124725 17 135 3.2 12.9 0.00 0.00 0.00 55 1014.1
20260505124224 17 0 4.8 9.7 0.00 0.00 0.00 54 1014.1
20260505123726 17 338 6.4 11.3 0.00 0.00 0.00 55 1014.1
20260505123225 17 315 6.4 11.3 0.00 0.00 0.00 55 1014.1
20260505122746 17 338 3.2 12.9 0.00 0.00 0.00 56 1014.1
20260505122224 17 158 4.8 12.9 0.00 0.00 0.00 56 1014.1
20260505121225 16 338 4.8 12.9 0.00 0.00 0.00 58 1014.1
20260505120725 16 135 3.2 12.9 0.00 0.00 0.00 57 1014.1
20260505120226 16 338 4.8 12.9 0.00 0.00 0.00 58 1014.1
20260505115724 16 338 9.7 12.9 0.00 0.00 0.00 58 1014.1
20260505115224 16 0 8.0 12.9 0.00 0.00 0.00 59 1014.1
20260505114726 16 0 6.4 12.9 0.00 0.00 0.00 59 1014.1
20260505114224 16 0 3.2 11.3 0.00 0.00 0.00 59 1014.1
20260505113726 16 202 6.4 11.3 0.00 0.00 0.00 59 1014.1
20260505113224 16 135 6.4 12.9 0.00 0.00 0.00 59 1014.1
20260505112724 16 338 8.0 14.5 0.00 0.00 0.00 60 1014.1
20260505112225 16 315 6.4 16.1 0.00 0.00 0.00 60 1014.1
20260505111723 16 338 6.4 16.1 0.00 0.00 0.00 60 1014.1
20260505110724 16 315 4.8 17.7 0.00 0.00 0.00 61 1014.1
20260505110226 16 0 3.2 17.7 0.00 0.00 0.00 61 1014.1
20260505101725 15 0 9.7 14.5 0.00 0.00 0.00 63 1015.1
20260505101225 15 315 4.8 14.5 0.00 0.00 0.00 63 1015.1
20260505100724 15 0 9.7 11.3 0.00 0.00 0.00 64 1015.1
20260505095725 15 338 8.0 12.9 0.00 0.00 0.00 64 1015.1
20260505095224 15 338 4.8 12.9 0.00 0.00 0.00 64 1015.1
20260505094726 15 338 6.4 12.9 0.00 0.00 0.00 65 1015.1
20260505094224 15 0 4.8 16.1 0.00 0.00 0.00 65 1015.1
20260505093225 15 315 6.4 16.1 0.00 0.00 0.00 64 1015.1
20260505092724 15 315 6.4 11.3 0.00 0.00 0.00 65 1015.1
20260505092224 15 338 6.4 14.5 0.00 0.00 0.00 67 1015.1
20260505091724 15 0 6.4 14.5 0.00 0.00 0.00 66 1015.1
20260505091226 15 0 6.4 12.9 0.00 0.00 0.00 67 1015.1
20260505090725 14 0 9.7 12.9 0.00 0.00 0.00 68 1015.1
20260505085724 14 0 9.7 12.9 0.00 0.00 0.00 69 1015.1
20260505085224 13 0 4.8 12.9 0.00 0.00 0.00 69 1015.1
20260505084726 13 315 8.0 12.9 0.00 0.00 0.00 69 1015.1
20260505083726 13 292 4.8 12.9 0.00 0.00 0.00 72 1015.1
20260505083224 13 0 4.8 12.9 0.00 0.00 0.00 72 1015.1
20260505082225 13 0 9.7 17.7 0.00 0.00 0.00 72 1015.1
20260505081725 13 315 4.8 17.7 0.00 0.00 0.00 73 1015.1
20260505081224 13 0 6.4 14.5 0.00 0.00 0.00 73 1015.1
20260505080724 13 0 8.0 14.5 0.00 0.00 0.00 73 1015.1
20260505080225 13 338 8.0 16.1 0.00 0.00 0.00 74 1015.1
20260505075724 13 338 11.3 16.1 0.00 0.00 0.00 74 1015.1
20260505075224 12 338 6.4 16.1 0.00 0.00 0.00 75 1015.1
20260505074724 12 315 8.0 17.7 0.00 0.00 0.00 76 1015.1
20260505073724 12 0 6.4 12.9 0.00 0.00 0.00 77 1014.1
20260505073224 12 0 9.7 12.9 0.00 0.00 0.00 78 1014.1
20260505072725 12 0 6.4 12.9 0.00 0.00 0.00 78 1014.1
20260505072224 12 338 6.4 19.3 0.00 0.00 0.00 78 1015.1
20260505071726 12 315 8.0 19.3 0.00 0.00 0.00 78 1015.1
20260505071224 12 0 6.4 19.3 0.00 0.00 0.00 78 1015.1
20260505065725 12 315 8.0 19.3 0.00 0.00 0.00 80 1015.1
20260505065225 12 315 9.7 16.1 0.00 0.00 0.00 81 1015.1
20260505064224 11 315 9.7 16.1 0.00 0.00 0.00 81 1015.1
20260505063226 12 338 6.4 14.5 0.00 0.00 0.00 82 1015.1
20260505062724 11 338 11.3 14.5 0.00 0.00 0.00 82 1015.1
20260505061725 11 338 9.7 16.1 0.00 0.00 0.00 83 1015.1
20260505061224 11 338 6.4 14.5 0.00 0.00 0.00 83 1015.1
20260505055226 11 0 6.4 9.7 0.00 0.00 0.00 84 1015.1
20260505054236 11 315 6.4 8.0 0.00 0.00 0.00 84 1015.1
20260505053725 11 338 4.8 6.4 0.00 0.00 0.00 84 1015.1
20260505053224 11 202 4.8 6.4 0.00 0.00 0.00 84 1015.1
20260505052725 11 0 4.8 8.0 0.00 0.00 0.00 84 1015.1
20260505052226 10 292 4.8 8.0 0.00 0.00 0.00 84 1015.1
20260505051224 10 338 4.8 6.4 0.00 0.00 0.00 84 1015.1
20260505050725 10 338 3.2 4.8 0.00 0.00 0.00 84 1015.1
20260505050224 10 270 1.6 6.4 0.00 0.00 0.00 84 1015.1
20260505041724 11 315 1.6 6.4 0.00 0.00 0.00 84 1015.1
20260505041224 11 0 3.2 6.4 0.00 0.00 0.00 84 1015.1
20260505040724 11 0 4.8 4.8 0.00 0.00 0.00 84 1015.1
20260505040225 11 0 3.2 4.8 0.00 0.00 0.00 84 1015.1
20260505035724 11 0 0.0 4.8 0.00 0.00 0.00 84 1015.1
20260505035225 11 202 0.0 4.8 0.00 0.00 0.00 84 1015.1
20260505034725 11 0 0.0 3.2 0.00 0.00 0.00 84 1015.1
20260505034226 11 292 0.0 6.4 0.00 0.00 0.00 84 1015.1
20260505033725 11 292 1.6 6.4 0.00 0.00 0.00 84 1015.1
20260505033224 11 180 1.6 6.4 0.00 0.00 0.00 84 1015.1
20260505032724 11 0 1.6 6.4 0.00 0.00 0.00 84 1015.1
20260505032225 11 0 3.2 6.4 0.00 0.00 0.00 84 1015.1
20260505031724 11 0 3.2 4.8 0.00 0.00 0.00 84 1015.1
20260505031224 11 0 1.6 6.4 0.00 0.00 0.00 84 1015.1
20260505030224 11 315 1.6 6.4 0.00 0.00 0.00 84 1015.1
20260505025724 11 0 4.8 6.4 0.00 0.00 0.00 84 1015.1
20260505025225 11 338 4.8 6.4 0.00 0.00 0.00 84 1016.1
20260505024724 11 315 3.2 8.0 0.00 0.00 0.00 84 1016.1
20260505024224 11 338 3.2 8.0 0.00 0.00 0.00 84 1016.1
20260505023724 11 0 3.2 8.0 0.00 0.00 0.00 84 1016.1
20260505023224 11 0 1.6 9.7 0.00 0.00 0.00 84 1016.1
20260505022725 11 0 4.8 9.7 0.00 0.00 0.00 84 1016.1
20260505022224 11 135 3.2 9.7 0.00 0.00 0.00 84 1016.1
20260505021726 11 135 4.8 8.0 0.00 0.00 0.00 84 1016.1
20260505021225 11 0 3.2 9.7 0.00 0.00 0.00 83 1016.1
20260505020724 11 292 3.2 9.7 0.00 0.00 0.00 83 1016.1
20260505020224 11 0 4.8 8.0 0.00 0.00 0.00 83 1016.1
20260505015724 11 0 3.2 9.7 0.00 0.00 0.00 83 1016.1
20260505015224 11 135 3.2 9.7 0.00 0.00 0.00 83 1016.1
20260505014725 11 0 6.4 6.4 0.00 0.00 0.00 83 1016.1
20260505013724 11 0 3.2 12.9 0.00 0.00 0.00 83 1016.1
20260505013226 11 315 4.8 6.4 0.00 0.00 0.00 83 1016.1
20260505012724 11 0 3.2 9.7 0.00 0.00 0.00 83 1016.1
20260505012224 11 338 4.8 9.7 0.00 0.00 0.00 83 1016.1
20260505011724 11 202 4.8 6.4 0.00 0.00 0.00 83 1016.1
20260505011224 11 0 3.2 6.4 0.00 0.00 0.00 84 1016.1
20260505010726 11 315 0.0 6.4 0.00 0.00 0.00 84 1016.1
20260505010224 11 0 1.6 6.4 0.00 0.00 0.00 84 1016.1
20260505005725 11 338 4.8 6.4 0.00 0.00 0.00 84 1016.1
20260505005225 11 180 3.2 6.4 0.00 0.00 0.00 84 1016.1
20260505004725 11 338 3.2 6.4 0.00 0.00 0.00 84 1016.1
20260505004226 11 338 3.2 6.4 0.00 0.00 0.00 84 1016.1
20260505002725 11 202 1.6 6.4 0.00 0.00 0.00 84 1016.1
20260505002224 12 0 1.6 9.7 0.00 0.00 0.00 84 1017.1
20260505001224 11 0 0.0 9.7 0.00 0.00 0.00 84 1017.1
20260505000726 12 135 3.2 9.7 0.00 0.00 0.00 83 1016.1
20260504235725 12 0 6.4 9.7 0.00 0.00 0.00 83 1016.1
20260504234724 12 292 3.2 8.0 0.00 0.00 0.00 83 1017.1
20260504234224 12 202 1.6 8.0 0.00 0.00 0.00 83 1017.1
20260504233725 12 135 1.6 8.0 0.00 0.00 0.00 83 1017.1
20260504233224 12 0.0 8.0 0.00 0.00 0.00 84 1017.1
20260504232733 12 0 3.2 9.7 0.00 0.00 0.00 83 1017.1
20260504232248 12 0.0 9.7 0.00 0.00 0.00 83 1017.1
20260504231725 12 338 6.4 9.7 0.00 0.00 0.00 83 1017.1
20260504231224 12 0 1.6 8.0 0.00 0.00 0.00 83 1017.1
20260504230724 12 135 1.6 6.4 0.00 0.00 0.00 83 1017.1
20260504224724 12 135 3.2 6.4 0.00 0.00 0.00 84 1017.1
20260504224226 12 292 0.0 6.4 0.00 0.00 0.00 84 1017.1
20260504223724 12 338 3.2 6.4 0.00 0.00 0.00 84 1017.1
20260504223224 12 292 0.0 6.4 0.00 0.00 0.00 84 1017.1
20260504222725 12 292 1.6 6.4 0.00 0.00 0.00 84 1017.1
20260504221224 12 292 1.6 8.0 0.00 0.00 0.00 84 1017.1
20260504220224 12 0 4.8 9.7 0.00 0.00 0.00 84 1017.1
20260504215724 12 315 3.2 9.7 0.00 0.00 0.00 84 1017.1
20260504214724 12 338 4.8 6.4 0.00 0.00 0.00 83 1017.1
20260504214225 12 135 3.2 6.4 0.00 0.00 0.00 83 1017.1
20260504213726 12 292 3.2 6.4 0.00 0.00 0.00 84 1017.1
20260504212225 12 338 4.8 9.7 0.00 0.00 0.00 83 1017.1
20260504211724 12 0 6.4 9.7 0.00 0.00 0.00 82 1017.1
20260504211224 12 0 4.8 9.7 0.00 0.00 0.00 82 1017.1
20260504210224 12 0 4.8 6.4 0.00 0.00 0.00 82 1017.1
20260504205726 12 270 3.2 8.0 0.00 0.00 0.00 82 1017.1
20260504204724 12 292 3.2 6.4 0.00 0.00 0.00 81 1017.1
20260504204224 12 0 4.8 6.4 0.00 0.00 0.00 81 1017.1
20260504203724 13 338 1.6 6.4 0.00 0.00 0.00 81 1017.1
20260504203225 13 180 3.2 6.4 0.00 0.00 0.00 81 1017.1
20260504202724 13 0 3.2 6.4 0.00 0.00 0.00 81 1017.1
20260504202225 13 0 4.8 4.8 0.00 0.00 0.00 81 1017.1
20260504201225 13 292 1.6 9.7 0.00 0.00 0.00 80 1017.1
20260504200725 13 158 3.2 9.7 0.00 0.00 0.00 80 1017.1
20260504195224 13 292 4.8 6.4 0.00 0.00 0.00 79 1017.1
20260504194226 13 315 3.2 6.4 0.00 0.00 0.00 79 1017.1
20260504193724 13 315 1.6 6.4 0.00 0.00 0.00 79 1017.1
20260504193226 13 338 1.6 4.8 0.00 0.00 0.00 79 1017.1
20260504192724 13 292 3.2 4.8 0.00 0.00 0.00 78 1017.1
20260504191725 13 0 3.2 4.8 0.00 0.00 0.00 78 1016.1
20260504191224 13 0 3.2 6.4 0.00 0.00 0.00 78 1016.1
20260504190724 13 292 1.6 6.4 0.00 0.00 0.00 77 1017.1
20260504190224 14 180 1.6 6.4 0.00 0.00 0.00 77 1017.1
20260504185724 14 202 0.0 6.4 0.00 0.00 0.00 77 1017.1
20260504185225 14 202 0.0 6.4 0.00 0.00 0.00 77 1017.1
20260504184725 14 315 3.2 6.4 0.00 0.00 0.00 76 1017.1
20260504184226 15 0 1.6 4.8 0.00 0.00 0.00 76 1017.1
20260504183724 15 202 3.2 4.8 0.00 0.00 0.00 76 1017.1
20260504182724 15 202 3.2 6.4 0.00 0.00 0.00 76 1017.1
20260504182226 15 0 3.2 6.4 0.00 0.00 0.00 76 1017.1
20260504181724 15 202 4.8 6.4 0.00 0.00 0.00 76 1017.1